Terug naar catalogus

STARLINK-35310

ActiefCommunicatieVLEO
NORAD 66183·PAYLOAD·🇺🇸 United States

Gelanceerd Oct 26, 2025 vanaf Cape Canaveral Space Force Station

Loading…

Volgende Passages (komende 24 uur)

TLE

VersSource: CelesTrak SupGP

Epoch: Sep 14, 2026, 21:36 UTC

1 66183C 25243G   26257.90048611  .00030909  00000+0  91331-3 0  2578
2 66183  53.1581  83.5691 0001223  76.7425 244.8872 15.34371767    10

Volg STARLINK-35310 in realtime met AllMySat

Download on the App Store